Location: Hradec Kralove
(50.2170°N, 15.8330°E)
Time: 04:15:28
(UTC+01:00)

N. Korean satellite - Pass Details

Date: 08 December 2022
Orbit: 407 x 441 km, 97.3° (Epoch: 05 February)

Event Time Altitude Azimuth Distance (km) Brightness Sun altitude
Rises 06:26:53 0° 360° (N) 2,516 10.0 -11.4°
Reaches altitude 10° 06:29:22 10° 342° (NNW) 1,627 8.8 -11.1°
Maximum altitude 06:31:52 19° 296° (WNW) 1,171 7.8 -10.7°
Drops below altitude 10° 06:34:21 10° 250° (WSW) 1,599 8.8 -10.3°
Sets 06:36:46 0° 232° (SW) 2,455 9.9 -10.0°
